Regional Weather Roundup
Issued by NWS

Home | Current Version | Previous Version | Graphics & Text | Print | Product List | Glossary On
Versions: 1 2 3 4 5 6 7 8 9 10 11 12 13 14 15 16 17 18 19 20 21 22 23 24 25 26 27 28 29 30 31 32 33 34 35 36 37 38 39 40 41 42 43 44 45 46 47 48 49 50
000
ASUS43 KMPX 210910
RWRMN
WEATHER ROUNDUP FOR MINNESOTA
NATIONAL WEATHER SERVICE TWIN CITIES/CHANHASSEN MN
400 AM CDT SUN SEP 21 2014


NOTE: "FAIR" INDICATES FEW OR NO CLOUDS BELOW 12,000 FEET WITH NO
SIGNIFICANT WEATHER AND/OR OBSTRUCTIONS TO VISIBILITY. N/A MEANS
CURRENT SKY AND/OR WEATHER CONDITIONS ARE NOT AVAILABLE.

MNZ060>063-068>070-211000-
   Twin Cities Metro

CITY           SKY/WX    TMP DP  RH WIND       PRES   REMARKS
TWIN CITIES    PTCLDY    54  46  74 NW17G28   29.91R
ST PAUL        PTCLDY    54  47  77 NW16G26   29.91R
CRYSTAL        MOCLDY    55  46  71 NW13      29.91R
BLAINE         PTCLDY    54  50  87 W13G21    29.91R
LAKEVILLE      MOCLDY    54  48  82 NW12G22   29.91R
EDEN PRAIRIE   MOCLDY    55  49  80 N12G23    29.91R
SOUTH ST PAUL  PTCLDY    55  47  73 NW15G24   29.90R
LAKE ELMO      MOCLDY    52  46  82 NW15      29.90R
$$
MNZ001>005-007-008-013>017-022>024-027-028-211000-
   Northwest Minnesota

CITY           SKY/WX    TMP DP  RH WIND       PRES   REMARKS
BEMIDJI        CLOUDY    49  48  96 NW7       29.99R
HALLOCK        CLEAR     52  48  87 NW8       30.03R
ROSEAU         CLOUDY    52  46  82 NW6       30.00R
WARROAD        CLOUDY    52  46  82 CALM      30.00R
THIEF RVR FALL CLOUDY    52  48  87 NW10      30.02R
CROOKSTON      MOCLDY    52  48  87 NW8       30.04R
FOSSTON        CLOUDY    50  48  93 NW7       30.02R
DETROIT LAKES  CLOUDY    52  50  93 N14G21    30.02R
MOORHEAD       MOCLDY    54  52  94 NW9       30.05R
PARK RAPIDS    PTCLDY    49  47  93 NW8       29.99R
MAHNOMEN       CLOUDY    51  49  93 NW12      30.02R
$$
MNZ006-009>011-018-025>026-211000-
   North Central Minnesota

CITY           SKY/WX    TMP DP  RH WIND       PRES   REMARKS
BAUDETTE       MOCLDY    49  47  93 VRB3      29.98R
FLAG ISLAND    PTCLDY    52  50  93 NW8       29.97R
INTL FALLS     CLOUDY    48  47  96 NW8       29.94R
WASKISH        CLOUDY    50  48  93 CALM      29.98R
BIG FORK       CLOUDY    48  46  93 NW3       29.95R
LONGVILLE      CLOUDY    50  46  87 NW6       29.96R
GRAND RAPIDS   CLOUDY    48  45  87 NW15G21   29.93R
CRANE LAKE     MOCLDY    48  48 100 N7        29.93R
ORR            CLOUDY    50  46  87 NW8       29.90R
COOK           CLOUDY    50  48  93 NW5       29.91R
WALKER         CLOUDY    49  47  93 NW3       29.98R
$$
MNZ012-019>021-037-211000-
   Northeast Minnesota

CITY           SKY/WX    TMP DP  RH WIND       PRES   REMARKS
DULUTH         LGT RAIN  53  50  89 N10       29.86R
ELY            CLOUDY    48  46  93 N6        29.88R
HIBBING        CLOUDY    52  49  89 NW14      29.90R
EVELETH        CLOUDY    52  50  93 N6        29.90R
DULUTH HARBOR  DRIZZLE   52  52 100 NE18G26   29.86R
TWO HARBORS    CLOUDY    52  46  82 CALM      29.84R
SILVER BAY     MOCLDY    48  48 100 CALM      29.83R
GRAND MARAIS     N/A     51  49  92 CALM      29.83R
G MARAIS ARPRT CLOUDY    46  43  87 N7        29.83R
$$
MNZ029>031-032-039>041-046>048-054>057-064-211000-
   West Central Minnesota

CITY           SKY/WX    TMP DP  RH WIND       PRES   REMARKS
FERGUS FALLS   PTCLDY    50  48  93 NW10      30.03S
WHEATON        CLEAR     52  46  82 NW8       30.06R
MORRIS         CLEAR     52  48  87 NW10      30.02R
ALEXANDRIA     CLEAR     51  49  92 NW13      30.01R
ELBOW LAKE     FAIR      51  49  93 NW10      30.02R
WADENA         MOCLDY    48  48 100 NW7       30.00R
GLENWOOD       CLEAR     52  48  87 NW13      30.00R
APPLETON       CLEAR     54  46  76 NW9       30.03R
BENSON         CLEAR     50  48  93 N9        30.02R
ORTONVILLE     CLEAR     54  46  76 NW9       30.04R
MADISON        CLEAR     54  46  76 W8        30.04R
WILLMAR        FAIR      52  48  87 NW10      30.01R
$$
MNZ033>034-036-042>043-049>051-058-059-211000-
   Central Minnesota

CITY           SKY/WX    TMP DP  RH WIND       PRES   REMARKS
ST CLOUD       PTCLDY    54  47  77 NW16G22   29.95R
SAUK CENTRE    CLOUDY    51  49  92 NW12      29.99R
PAYNESVILLE    CLEAR     49  47  94 W10       29.98R
AITKIN         MIX PCPN  52  46  82 NW5       29.92R
PINE RIVER     CLOUDY    52  46  82 NW7       30.00R
BRAINERD       MOCLDY    50  46  86 NW12      29.96R
STAPLES        PTCLDY    48  46  93 NW6       29.99R
LONG PRAIRIE   CLOUDY    50  46  87 W10G16    29.98R
LITTLE FALLS   CLEAR     50  45  81 NW6       29.96R
LITCHFIELD     CLEAR     54  52  94 NW10      29.98R
BUFFALO        PTCLDY    53  46  77 NW12G20   29.95R
MAPLE LAKE     PTCLDY    54  50  88 NW14      29.95R
$$
MNZ037-044-045-052-053-211000-
   East Central Minnesota

CITY           SKY/WX    TMP DP  RH WIND       PRES   REMARKS
PRINCETON      PTCLDY    52  46  82 W10       29.92R
MORA           RAIN      50  45  81 NW15G25   29.91R
CAMBRIDGE      PTCLDY    54  45  71 W10       29.88R
RUSH CITY      CLOUDY    53  47  82 NW9G20    29.88R
MOOSE LAKE     DRIZZLE   50  48  93 NW12      29.86R
HINCKLEY       RAIN      52  50  93 NW14G20   29.88R
CLOQUET        CLOUDY    52  48  87 NW13      29.87R
MCGREGOR       CLOUDY    50  48  93 NW12      29.92R
$$
MNZ071>073-080-081-089-090-097-098-211000-
   Southwest Minnesota

CITY           SKY/WX    TMP DP  RH WIND       PRES   REMARKS
MONTEVIDEO     CLEAR     54  48  82 N8        30.03R
GRANITE FALLS  CLEAR     49  46  89 W8        30.03R
CANBY          CLEAR     53  46  77 NW8       30.06R
MARSHALL       CLEAR     54  43  66 NW12      30.02R
REDWOOD FALLS  CLEAR     53  47  79 NW12      29.99R
OLIVIA         CLEAR     52  46  82 NW9       29.99R
PIPESTONE      CLEAR     54  45  71 NW10      30.06R
WINDOM         CLEAR     54  45  71 NW9       30.02R
WORTHINGTON    CLEAR     54  43  66 NW13      30.05R
JACKSON        CLEAR     55  43  62 NW12      30.02R
TRACY          CLEAR     55  46  71 NW8       30.03R
SLAYTON        CLEAR     52  44  75 NW5       30.05R
$$
MNZ065>067-074>077-082>085-091>093-211000-
   South Central Minnesota

CITY           SKY/WX    TMP DP  RH WIND       PRES   REMARKS
MANKATO        CLEAR     54  45  71 NW9       29.95R
NEW ULM        CLEAR     54  48  82 NW17G23   29.96S
ST JAMES       CLEAR     55  46  71 W12       30.00R
FAIRMONT       CLEAR     57  43  58 NW12      29.98R
GLENCOE        CLEAR     54  48  81 NW9       29.95R
FARIBAULT      CLEAR     57  48  72 W9G16     29.93R
OWATONNA       CLEAR     54  48  82 W12       29.93R
WASECA         CLEAR     50  45  81 W9        29.95R
ALBERT LEA     CLEAR     54  50  87 NW8       29.93R
$$
MNZ078>079-086>088-094>096-211000-
   Southeast Minnesota

CITY           SKY/WX    TMP DP  RH WIND       PRES   REMARKS
ROCHESTER      CLEAR     53  50  89 W12       29.89R
RED WING       MOCLDY    55  46  71 NW12G23   29.86R
STANTON        MOCLDY    55  50  82 NW13      29.90R
DODGE CENTER   PTCLDY    54  52  94 W13G18    29.90R
WINONA         PTCLDY    55  50  82 NW13G22   29.83R
AUSTIN         CLEAR     54  48  82 NW15      29.91R
PRESTON        CLEAR     54  53  97 NW16G25   29.87R
$$
ABBREVIATIONS USED IN REMARKS
   TC - TEMPERATURES IN CELSIUS
  WCI - WIND CHILL INDEX
   HX - HEAT INDEX
  VSB - VISIBILITY
$$



USA.gov is the U.S. government's official web portal to all federal, state and local government web resources and services.